Regional Weather Roundup
Issued by NWS

Home | Current Version | Previous Version | Text Only | Print | Product List | Glossary On
Versions: 1 2 3 4 5 6 7 8 9 10 11 12 13 14 15 16 17 18 19 20 21 22 23 24 25 26 27 28 29 30 31 32 33 34 35 36 37 38 39 40 41 42 43 44 45 46 47 48 49 50
000
ASUS43 KLSX 240410
RWRMO

WEATHER SUMMARY FOR MISSOURI
NATIONAL WEATHER SERVICE SPRINGFIELD MO
1000 PM CST THU FEB 23 2017

NOTE: "FAIR" INDICATES FEW OR NO CLOUDS BELOW 12,000 FEET WITH NO
       SIGNIFICANT WEATHER AND/OR OBSTRUCTIONS TO VISIBILITY.
       CURRENT SKY AND/OR WEATHER CONDITIONS ARE NOT AVAILABLE FOR
       CHILLICOTHE AND FARMINGTON.

MOZ001>031-035>038-043-044-053-054-240500-
...NORTHERN AND WESTERN MISSOURI...

CITY           SKY/WX    TMP DP  RH WIND       PRES   REMARKS
KANSAS CTY INT CLOUDY    48  46  93 NE9       29.37F
KANSAS C DTWN  CLEAR     50  47  89 E7        29.36F
LEE`S SUMMIT   CLEAR     50  48  93 E14       29.37F FOG
ST JOSEPH      CLOUDY    47  46  97 NE12      29.40F FOG
CHILLICOTHE      N/A     50  48  93 NE5       29.42F
KIRKSVILLE     CLOUDY    49  48  97 VRB5      29.47F FOG

$$
MOZ066>068-077>081-088>096-101>105-240500-
...SOUTHWEST MISSOURI...

CITY           SKY/WX    TMP DP  RH WIND       PRES   REMARKS
SPRINGFIELD    CLEAR     67  49  52 S16       29.45F
JOPLIN         PTCLDY    73  48  41 S28G36    29.39F
BRANSON        CLEAR     68  52  56 S12G21    29.52F

$$
MOZ032>034-039>042-045>050-055>058-069>072-240500-
...CENTRAL MISSOURI...

CITY           SKY/WX    TMP DP  RH WIND       PRES   REMARKS
COLUMBIA       PTCLDY    64  55  72 S16       29.44R
JEFFERSON CITY MOCLDY    64  54  69 E12       29.45R
ROLLA          CLEAR     64  56  75 S16       29.48S
SEDALIA        CLOUDY    60  51  72 SE8       29.41F
WHITEMAN AFB   PTCLDY    48  48 100 E3        29.37F
WARRENSBURG    PTCLDY    48  46  93 E6        29.38F
OSAGE BEACH    CLEAR     68  55  63 S12G22    29.45

$$
MOZ051-052-059>065-240500-
...EAST CENTRAL MISSOURI...

CITY           SKY/WX    TMP DP  RH WIND       PRES   REMARKS
ST LOUIS INTL  CLOUDY    66  54  65 SE10      29.53F
SPIRIT OF STL  MOCLDY    63  56  78 E5        29.51F
ST CHARLES     CLOUDY    62  55  77 SE12      29.51F

$$
MOZ072>076-082>087-097>100-106>115-240500-
...SOUTH CENTRAL AND SOUTHEAST MISSOURI...

CITY           SKY/WX    TMP DP  RH WIND       PRES   REMARKS
CAPE GIRARDEAU CLEAR     62  55  77 S7        29.62R
FARMINGTON     CLOUDY    66  55  67 S21G30    29.54F
POPLAR BLUFF   PTCLDY    67  55  65 S13       29.60S
WEST PLAINS    MOCLDY    65  56  72 S13G21    29.57R

$$




USA.gov is the U.S. government's official web portal to all federal, state and local government web resources and services.